Home   Weather   Fairfield Ridge   Past weeks
Flag for USA

Past Weather in Fairfield Ridge, North Carolina, USA — Yesterday and Last 2 Weeks

Now
47 °F

Passing clouds.


Feels Like: 41 °F
Forecast: 54 / 42 °F
Wind: 14 mph from West

Location: Clemson-Oconee County Airport

Current Time: Dec 14, 2019 at 8:59:40 am

Latest Report: Dec 14, 2019 at 8:11 am


Visibility: 10 mi

Pressure: 29.60 "Hg

Humidity: 90%

Dew Point: 44 °F

Location of Fairfield RidgeLocation

Past Weather in Fairfield Ridge — Graph

°F

Fairfield Ridge Temperature Yesterday

Maximum temperature yesterday: 46 °F (at 11:54 pm)
Minimum temperature yesterday: 34 °F (at 1:01 am)
Average temperature yesterday: 40 °F

High & Low Weather Summary for the Past Weeks

 TemperatureHumidityPressure
High67 °F (Nov 30, 2:54 pm)100% (Dec 11, 7:59 am)30.63 "Hg (Dec 11, 7:59 am)
Low29 °F (Dec 12, 5:42 am)21% (Dec 5, 12:54 pm)29.54 "Hg (Dec 1, 2:54 pm)
Average47 °F72%30.05 "Hg
* Reported Nov 29 7:54 am — Dec 14 7:54 am, Fairfield Ridge. Weather by CustomWeather, © 2019

Note: Actual official high and low records may vary slightly from our data, if they occured in-between our weather recording intervals... More about our weather records

Fairfield Ridge Weather History for the Previous 24 Hours

Scroll right to see more
 ConditionsComfort  
Time TempWeatherWind HumidityBarometerVisibility
7:54 am
Sat, Dec 14
47 °FPartly sunny.8 mph93%29.59 "Hg10 mi
7:08 am47 °FLow clouds.7 mph97%29.60 "Hg9 mi
6:54 am47 °FLow clouds.7 mph97%29.60 "Hg10 mi
6:25 am46 °FFog.8 mph96%29.61 "Hg4 mi
6:18 am46 °FFog.10 mph96%29.61 "Hg2 mi
5:54 am46 °FFog.No wind100%29.61 "Hg1 mi
5:08 am46 °FFog.5 mph100%29.62 "Hg2 mi
4:54 am46 °FFog.3 mph100%29.63 "Hg1 mi
4:35 am46 °FFog.3 mph96%29.64 "Hg3 mi
4:10 am46 °FFog.7 mph96%29.65 "Hg1 mi
4:06 am46 °FFog.6 mph96%29.65 "Hg1 mi
3:29 am46 °FFog.3 mph96%29.63 "Hg6 mi
2:54 am46 °FMostly cloudy.6 mph96%29.65 "Hg10 mi
2:19 am46 °FFog.3 mph100%29.63 "Hg3 mi
2:05 am46 °FFog.7 mph96%29.63 "Hg1 mi
1:33 am46 °FLight rain. Fog.3 mph96%29.67 "Hg1 mi
1:21 am46 °FRain. Fog.No wind96%29.71 "Hg2 mi
1:11 am46 °FRain. Fog.3 mph100%29.72 "Hg1 mi
1:04 am47 °FLight rain. Fog.No wind97%29.71 "Hg2 mi
1:00 am46 °FLight rain. Fog.3 mph100%29.70 "Hg3 mi
12:24 am46 °FRain. Fog.No wind100%29.77 "Hg4 mi
12:16 am46 °FRain. Fog.5 mph100%29.78 "Hg2 mi
11:54 pm
Fri, Dec 13
46 °FRain. Fog.9 mph96%29.77 "Hg4 mi
11:34 pm45 °FHeavy rain. Fog.10 mph97%29.78 "Hg3 mi
11:22 pm45 °FHeavy rain. Fog.12 mph93%29.78 "Hg2 mi
10:54 pm45 °FLight rain. Fog.3 mph97%29.77 "Hg2 mi
10:22 pm45 °FLight rain. Fog.No wind97%29.76 "Hg2 mi
9:54 pm45 °FOvercast.No wind97%29.78 "Hg10 mi
9:04 pm44 °FLow clouds.3 mph96%29.80 "Hg10 mi
8:54 pm44 °FMostly cloudy.6 mph96%29.82 "Hg7 mi
8:32 pm45 °FMostly cloudy.No wind97%29.84 "Hg10 mi
8:09 pm44 °FFog.6 mph100%29.84 "Hg4 mi
8:02 pm44 °FLight rain. Fog.3 mph96%29.84 "Hg3 mi
7:54 pm44 °FLight rain. Fog.12 mph96%29.82 "Hg1 mi
6:54 pm44 °FHeavy rain. Fog.6 mph96%29.88 "Hg2 mi
6:39 pm44 °FLight rain. Fog.5 mph96%29.88 "Hg2 mi
6:08 pm44 °FLight rain. Fog.7 mph96%29.89 "Hg2 mi
5:54 pm44 °FLight rain. Fog.7 mph96%29.89 "Hg3 mi
5:05 pm44 °FMostly cloudy.6 mph93%29.91 "Hg9 mi
4:31 pm43 °FMore clouds than sun.8 mph97%29.92 "Hg10 mi
3:54 pm43 °FLight rain. Fog.6 mph97%29.95 "Hg3 mi
3:23 pm43 °FLight rain. Fog.7 mph93%29.96 "Hg3 mi
3:14 pm43 °FLight rain. Fog.5 mph93%29.96 "Hg3 mi
2:54 pm42 °FLight rain. Fog.6 mph96%29.98 "Hg3 mi
2:32 pm42 °FRain. Fog.6 mph92%29.98 "Hg2 mi
1:54 pm42 °FLight rain. Mostly cloudy.6 mph96%29.99 "Hg10 mi
1:18 pm42 °FLight rain. Low clouds.6 mph92%30.01 "Hg8 mi
12:54 pm41 °FLight rain. Low clouds.5 mph96%30.03 "Hg10 mi
12:21 pm41 °FLight rain. More clouds than sun.8 mph93%30.06 "Hg10 mi
11:54 am41 °FLight rain. Mostly cloudy.7 mph96%30.10 "Hg10 mi
11:01 am40 °FLight rain. Mostly cloudy.9 mph97%30.12 "Hg10 mi
10:34 am40 °FLight rain. Low clouds.8 mph93%30.14 "Hg10 mi
10:06 am40 °FMostly cloudy.6 mph93%30.17 "Hg10 mi
9:29 am39 °FMore clouds than sun.7 mph93%30.17 "Hg10 mi
9:17 am39 °FLight rain. Mostly cloudy.6 mph93%30.16 "Hg8 mi
8:54 am38 °FRain. Fog.8 mph93%30.18 "Hg4 mi
Weather by CustomWeather, © 2019

See weather overview

Advertising